CW0099 Weather Reports


Display with metric or nautical units.
time (UTC)temp
F
wind
direction
speed
MPH
gust
MPH
rain 1hr
in
rain 24hr
in
rain mn
in
humidity
%
barometer
mb
20180121121834 42 151 0.0 0.0 0.00 0.00 0.00 98 1013.9
20180121120734 42 151 0.0 0.0 0.00 0.00 0.00 98 1013.8
20180121115654 42 151 0.0 0.0 0.00 0.00 0.00 98 1014.1
20180121112335 42 151 0.0 0.0 0.00 0.00 0.00 98 1013.9
20180121111234 42 151 0.0 0.0 0.00 0.00 0.00 97 1013.9
20180121103934 41 151 0.0 0.0 0.00 0.00 0.00 97 1014.0
20180121101736 40 151 0.0 0.0 0.00 0.00 0.00 97 1013.8
20180121095534 40 151 0.0 0.0 0.00 0.00 0.00 97 1013.8
20180121094434 40 151 0.0 0.0 0.00 0.00 0.00 97 1013.9
20180121093335 39 151 0.0 0.0 0.00 0.00 0.00 97 1014.2
20180121092254 39 151 0.0 0.0 0.00 0.00 0.00 97 1014.2
20180121091135 38 151 0.0 0.0 0.00 0.00 0.00 96 1014.3
20180121090034 38 151 0.0 0.0 0.00 0.00 0.00 95 1014.3
20180121084935 37 151 0.0 0.0 0.00 0.00 0.00 95 1014.3
20180121082735 38 151 0.0 0.0 0.00 0.00 0.00 94 1014.4
20180121081654 38 151 0.0 0.0 0.00 0.00 0.00 94 1014.3
20180121073234 40 151 0.0 0.0 0.00 0.00 0.00 95 1014.0
20180121072134 40 151 0.0 0.0 0.00 0.00 0.00 95 1013.9
20180121071034 41 151 0.0 0.0 0.00 0.00 0.00 95 1014.0
20180121064834 41 151 0.0 2.0 0.00 0.00 0.00 95 1013.9
20180121063735 42 151 0.0 0.0 0.00 0.00 0.00 95 1013.9
20180121062634 42 151 0.0 0.0 0.00 0.00 0.00 94 1013.9
20180121060434 42 151 0.0 0.0 0.00 0.00 0.00 94 1014.4
20180121050934 41 150 3.0 3.0 0.00 0.00 0.00 92 1014.0
20180121044739 41 150 0.0 0.0 0.00 0.00 0.00 90 1014.5
20180121043634 41 150 0.0 0.0 0.00 0.00 0.00 89 1014.6
20180121040334 43 150 0.0 5.0 0.00 0.00 0.00 87 1014.5
20180121034135 43 157 0.0 4.0 0.00 0.00 0.00 86 1014.6
20180121033035 44 157 0.0 4.0 0.00 0.00 0.00 85 1014.4
20180121031935 44 156 4.0 4.0 0.00 0.00 0.00 85 1014.5
20180121024635 45 166 3.0 8.0 0.00 0.00 0.00 83 1014.7
20180121022434 45 148 4.0 8.0 0.00 0.00 0.00 83 1014.4
20180121020234 45 169 5.0 8.0 0.00 0.00 0.00 82 1014.5
20180121015134 45 153 4.0 8.0 0.00 0.00 0.00 82 1014.3
20180121014034 45 164 5.0 8.0 0.00 0.00 0.00 81 1014.4
20180121012934 46 162 3.0 9.0 0.00 0.00 0.00 80 1014.4
20180121004534 48 120 3.0 7.0 0.00 0.00 0.00 77 1014.5
20180121003435 48 131 0.0 6.0 0.00 0.00 0.00 77 1014.3
20180121000135 50 128 0.0 8.0 0.00 0.00 0.00 72 1014.2
20180120235035 51 128 0.0 8.0 0.00 0.00 0.00 72 1013.9
20180120233935 52 132 3.0 8.0 0.00 0.00 0.00 71 1013.9
20180120232835 52 115 3.0 9.0 0.00 0.00 0.00 70 1013.7
20180120230635 56 125 4.0 9.0 0.00 0.00 0.00 64 1013.6
20180120225535 58 149 0.0 7.0 0.00 0.00 0.00 63 1013.2
20180120224434 59 162 0.0 7.0 0.00 0.00 0.00 62 1013.3
20180120221135 60 182 0.0 8.0 0.00 0.00 0.00 61 1013.1
20180120220036 60 162 4.0 4.0 0.00 0.00 0.00 61 1013.1
20180120214949 58 252 3.0 14.0 0.00 0.00 0.00 68 1013.6
20180120191912 57 311 3.0 6.0 0.00 0.00 0.00 67 1013.8
20180120190750 56 130 0.0 0.0 0.00 0.00 0.00 68 1014.1
20180120185650 54 130 0.0 5.0 0.00 0.00 0.00 68 1014.3
20180120183510 53 129 0.0 3.0 0.00 0.00 0.00 66 1014.8
20180120173950 51 132 0.0 6.0 0.00 0.00 0.00 67 1015.7
20180120172850 51 159 0.0 6.0 0.00 0.00 0.00 68 1016.1
20180120170650 52 169 0.0 4.0 0.00 0.00 0.00 74 1016.4
20180120164450 51 179 2.0 9.0 0.00 0.00 0.00 74 1016.5
20180120163350 50 222 4.0 9.0 0.00 0.00 0.00 74 1016.7
20180120162250 50 182 0.0 7.0 0.00 0.00 0.00 72 1016.9
20180120161150 50 240 0.0 7.0 0.00 0.00 0.00 72 1016.6
20180120160050 48 257 7.0 8.0 0.00 0.00 0.00 71 1016.5
20180120154950 46 198 0.0 8.0 0.00 0.00 0.00 70 1016.6
20180120153850 45 182 4.0 8.0 0.00 0.00 0.00 70 1016.5
20180120152750 44 173 6.0 11.0 0.00 0.00 0.00 70 1016.5
20180120150550 42 196 3.0 7.0 0.00 0.00 0.00 73 1016.0
20180120145450 41 194 5.0 10.0 0.00 0.00 0.00 74 1015.8
20180120143324 40 167 3.0 6.0 0.00 0.00 0.00 77 1015.7
20180120142157 39 187 7.0 9.0 0.00 0.00 0.00 78 1015.5
20180120141050 38 201 6.0 9.0 0.00 0.00 0.00 79 1015.3
20180120133750 36 182 2.0 6.0 0.00 0.00 0.00 80 1015.2
20180120130510 35 183 3.0 3.0 0.00 0.00 0.00 80 1015.2
20180120125350 35 183 0.0 4.0 0.00 0.00 0.00 80 1015.1
20180120124250 35 188 0.0 4.0 0.00 0.00 0.00 80 1015.1